DW1549 Fauske NO current weather conditions

sailwx.info

Wind from 355

Air temperature 8.3° C
Dewpoint 6.5° C

Last reported at 2014-Aug-31 03:51 UTC.
Time now 2014-Aug-31 04:38 UTC

Location: N 67°16' E 015°25'.
View on Google Maps.

See reports from other nearby stations

  
Tides and Currents Weather Stations Pressure Air Temp Water Temp Dewpoint Dewpoint Depression Visibility Wind Speed Wind Dir Waves Ship Positions
date/time (UTC)wind fromknots sea level pressurealtimeterstation pressurevisibilityair tempwater tempwave heightnotes
2014-Aug-31 03:51 355 8.3
2014-Aug-31 03:41 346 8.3
2014-Aug-31 03:31 347 8.3
2014-Aug-31 03:21 355 7.8
2014-Aug-31 03:11 344 7.8
2014-Aug-31 03:01 300 7.8
2014-Aug-31 02:51 300 7.8
2014-Aug-31 02:41 300 7.8
2014-Aug-31 02:31 300 7.8
2014-Aug-31 02:21 300 7.8
2014-Aug-31 02:11 300 7.8
2014-Aug-31 02:01 300 7.8
2014-Aug-31 01:51 300 7.8
2014-Aug-31 01:41 300 7.8
2014-Aug-31 01:31 300 7.8
2014-Aug-31 01:21 300 8.3
2014-Aug-31 01:11 300 8.3
2014-Aug-31 01:01 300 8.3
2014-Aug-31 00:51 300 8.3
2014-Aug-31 00:41 300 8.3
2014-Aug-31 00:31 300 8.3
2014-Aug-31 00:21 300 8.3
2014-Aug-31 00:11 300 8.3
2014-Aug-31 00:01 300 8.3
2014-Aug-30 23:51 300 8.3
2014-Aug-30 23:41 300 8.3
2014-Aug-30 23:31 300 8.3
2014-Aug-30 23:21 300 8.9
2014-Aug-30 23:11 300 8.9
2014-Aug-30 23:01 300 8.9
2014-Aug-30 22:51 300 8.9
2014-Aug-30 22:41 300 8.9
2014-Aug-30 22:31 300 8.9
2014-Aug-30 22:21 300 8.9
2014-Aug-30 22:11 300 8.9
2014-Aug-30 22:01 300 8.9
2014-Aug-30 21:51 300 0 gusting 1 9.4
2014-Aug-30 21:41 300 9.4
2014-Aug-30 21:31 300 9.4
2014-Aug-30 21:21 300 9.4
2014-Aug-30 21:11 300 9.4
2014-Aug-30 21:01 300 10.0
2014-Aug-30 20:51 300 10.0
2014-Aug-30 20:41 300 10.0
2014-Aug-30 20:31 300 10.6
2014-Aug-30 20:21 300 10.6
2014-Aug-30 20:11 300 10.6
2014-Aug-30 20:01 300 11.1
2014-Aug-30 19:51 300 11.1
2014-Aug-30 19:41 300 11.7
2014-Aug-30 19:31 300 11.7
2014-Aug-30 19:21 300 12.2
2014-Aug-30 19:11 300 12.2
2014-Aug-30 19:02 300 12.2
2014-Aug-30 18:51 300 12.8
2014-Aug-30 18:41 300 12.8
2014-Aug-30 18:31 300 13.3
2014-Aug-30 18:21 300 13.3
2014-Aug-30 18:11 300 13.3
2014-Aug-30 18:01 300 13.9
2014-Aug-30 17:51 300 13.9
2014-Aug-30 17:41 300 14.4
2014-Aug-30 17:31 300 14.4
2014-Aug-30 17:21 300 15.0
2014-Aug-30 17:11 289 15.6
2014-Aug-30 17:01 285 15.6
2014-Aug-30 16:51 276 16.1
2014-Aug-30 16:41 276 16.7
2014-Aug-30 16:31 277 17.8
2014-Aug-30 16:21 275 18.3
2014-Aug-30 16:11 289 18.9
2014-Aug-30 16:01 204 19.4
2014-Aug-30 15:51 200 0 gusting 2 19.4
2014-Aug-30 15:41 200 19.4
2014-Aug-30 15:31 188 19.4
2014-Aug-30 15:21 142 0 gusting 2 20.6
2014-Aug-30 15:11 142 21.1
2014-Aug-30 15:01 142 21.1
2014-Aug-30 14:51 142 21.1
2014-Aug-30 14:41 142 21.1
2014-Aug-30 14:31 142 21.7
2014-Aug-30 14:21 142 21.7
2014-Aug-30 14:11 142 21.7
2014-Aug-30 14:01 142 21.7
2014-Aug-30 13:51 142 21.1
2014-Aug-30 13:41 142 21.1
2014-Aug-30 13:31 142 21.1
2014-Aug-30 13:21 142 20.6
2014-Aug-30 13:11 142 20.6
2014-Aug-30 13:01 142 21.1
2014-Aug-30 12:51 142 21.1
2014-Aug-30 12:41 142 21.1
2014-Aug-30 12:31 142 20.6
2014-Aug-30 12:21 142 20.6
2014-Aug-30 12:11 142 20.6
2014-Aug-30 12:01 142 20.0
2014-Aug-30 11:51 142 19.4
2014-Aug-30 11:41 142 18.9
2014-Aug-30 11:31 142 18.9
2014-Aug-30 11:21 142 18.3
2014-Aug-30 11:11 142 17.8
2014-Aug-30 11:01 142 17.8
2014-Aug-30 10:51 142 17.2
2014-Aug-30 10:41 142 17.8
2014-Aug-30 10:31 142 17.8
2014-Aug-30 10:21 142 17.8
2014-Aug-30 10:11 142 17.2
2014-Aug-30 10:01 142 17.2
2014-Aug-30 09:51 141 17.2
2014-Aug-30 09:41 141 17.2
2014-Aug-30 09:31 141 17.2
2014-Aug-30 09:21 141 17.2
2014-Aug-30 09:11 141 16.7
2014-Aug-30 09:01 141 16.1
2014-Aug-30 08:51 141 0 gusting 1 16.1
2014-Aug-30 08:41 141 16.1
2014-Aug-30 08:31 141 15.6
2014-Aug-30 08:21 141 15.0
2014-Aug-30 08:11 141 15.0
2014-Aug-30 08:01 141 14.4
2014-Aug-30 07:51 141 13.9
2014-Aug-30 07:41 141 13.9
2014-Aug-30 07:31 140 13.9
2014-Aug-30 07:21 140 0 gusting 2 13.3
2014-Aug-30 07:11 140 0 gusting 5 13.3
2014-Aug-30 07:01 108 0 gusting 2 12.8
2014-Aug-30 06:51 098 11.7
2014-Aug-30 06:41 098 11.7
2014-Aug-30 06:31 098 11.7
2014-Aug-30 06:22 098 11.1
2014-Aug-30 06:11 098 10.6
2014-Aug-30 06:02 098 10.6
2014-Aug-30 05:51 098 10.0
2014-Aug-30 05:41 098 9.4
2014-Aug-30 05:31 098 9.4
2014-Aug-30 05:22 098 8.9
2014-Aug-30 05:12 095 8.3
2014-Aug-30 05:02 095 0 gusting 1 8.3
2014-Aug-30 04:52 095 7.8
2014-Aug-30 04:41 131 1 gusting 6 7.8
2014-Aug-30 04:32 202 0 gusting 4 6.7
2014-Aug-30 04:21 234 6.7
2014-Aug-30 04:11 234 6.7
2014-Aug-30 04:01 234 6.7
2014-Aug-30 03:51 234 6.7
2014-Aug-30 03:41 234 6.7
2014-Aug-30 03:31 234 6.7
2014-Aug-30 03:21 233 6.7
2014-Aug-30 03:11 233 6.7
2014-Aug-30 03:02 233 6.7
2014-Aug-30 02:52 233 6.7
2014-Aug-30 02:31 233 6.7
2014-Aug-30 02:21 233 6.7
2014-Aug-30 02:11 233 6.7
2014-Aug-30 02:01 233 7.2
2014-Aug-30 01:51 233 7.2
2014-Aug-30 01:41 233 7.2
2014-Aug-30 01:31 233 7.2
2014-Aug-30 01:21 233 7.2
2014-Aug-30 01:11 233 7.2
2014-Aug-30 01:01 233 7.2
2014-Aug-30 00:51 233 7.2
2014-Aug-30 00:41 233 7.8
2014-Aug-30 00:31 234 7.8
2014-Aug-30 00:21 233 7.8
2014-Aug-30 00:11 233 8.3
2014-Aug-30 00:01 233 7.8
2014-Aug-29 23:51 233 7.8
2014-Aug-29 23:41 233 7.8
2014-Aug-29 23:31 233 7.8
2014-Aug-29 23:21 233 7.8
2014-Aug-29 23:11 233 7.8
2014-Aug-29 23:01 233 7.8
2014-Aug-29 22:51 233 8.3
2014-Aug-29 22:41 233 8.3
2014-Aug-29 22:31 233 8.3
2014-Aug-29 22:21 233 8.3
2014-Aug-29 22:11 233 8.3
2014-Aug-29 22:01 233 8.9
2014-Aug-29 21:51 233 8.9
2014-Aug-29 21:41 233 8.9
2014-Aug-29 21:31 233 9.4
2014-Aug-29 21:21 233 9.4
2014-Aug-29 21:11 233 9.4
2014-Aug-29 21:01 233 9.4
2014-Aug-29 20:51 233 9.4
2014-Aug-29 20:41 233 9.4
2014-Aug-29 20:31 233 9.4
2014-Aug-29 20:21 233 10.0
2014-Aug-29 20:11 233 10.0
2014-Aug-29 20:01 233 10.0
2014-Aug-29 19:51 233 10.6
2014-Aug-29 19:41 233 10.6
2014-Aug-29 19:31 233 11.1
2014-Aug-29 19:21 233 11.1
2014-Aug-29 19:11 233 11.1
2014-Aug-29 19:01 233 11.7
2014-Aug-29 18:51 233 11.7
2014-Aug-29 18:41 233 12.2
2014-Aug-29 18:31 233 12.2
2014-Aug-29 18:21 233 12.8
2014-Aug-29 18:11 233 12.8
2014-Aug-29 18:01 233 13.3
2014-Aug-29 17:51 233 13.9
2014-Aug-29 17:41 233 14.4
2014-Aug-29 17:31 233 14.4
2014-Aug-29 17:22 233 15.0
2014-Aug-29 17:12 234 15.0
2014-Aug-29 17:02 233 0 gusting 4 15.6
2014-Aug-29 16:52 232 0 gusting 4 16.1
2014-Aug-29 16:42 231 0 gusting 5 16.1
2014-Aug-29 16:32 231 0 gusting 2 16.7
2014-Aug-29 16:21 232 1 gusting 6 16.7
2014-Aug-29 16:11 242 1 gusting 6 17.2
2014-Aug-29 16:01 241 1 gusting 6 17.2
2014-Aug-29 15:51 237 17.8
2014-Aug-29 15:41 242 1 gusting 6 17.8
2014-Aug-29 15:31 248 2 gusting 6 18.3
2014-Aug-29 15:22 245 2 gusting 8 18.9
2014-Aug-29 15:12 232 2 gusting 6 18.9
2014-Aug-29 15:02 229 3 gusting 7 18.9
2014-Aug-29 14:52 239 0 gusting 6 18.9
2014-Aug-29 14:42 232 0 gusting 8 19.4
2014-Aug-29 14:32 232 2 gusting 7 19.4
2014-Aug-29 14:21 236 4 gusting 6 19.4
2014-Aug-29 14:11 230 0 gusting 6 19.4
2014-Aug-29 14:01 232 2 gusting 5 19.4
2014-Aug-29 13:51 236 0 gusting 4 18.9
2014-Aug-29 13:41 243 0 gusting 2 18.3
2014-Aug-29 13:32 243 18.3
2014-Aug-29 13:22 243 17.8
2014-Aug-29 13:11 243 18.3
2014-Aug-29 13:02 243 18.3
2014-Aug-29 12:52 243 18.3
2014-Aug-29 12:41 243 18.9
2014-Aug-29 12:32 243 18.3
2014-Aug-29 12:22 243 18.3
2014-Aug-29 12:11 243 18.3
2014-Aug-29 12:01 243 17.8
2014-Aug-29 11:51 243 17.8
2014-Aug-29 11:42 243 17.8
2014-Aug-29 11:32 243 17.2
2014-Aug-29 11:22 243 17.2
2014-Aug-29 11:12 243 17.2
2014-Aug-29 11:02 243 0 gusting 1 16.7
2014-Aug-29 10:51 243 16.7
2014-Aug-29 10:41 243 16.7
2014-Aug-29 10:31 243 16.7
2014-Aug-29 10:21 243 16.1
2014-Aug-29 10:12 243 16.1
2014-Aug-29 10:01 243 16.1
2014-Aug-29 09:51 243 16.1
2014-Aug-29 09:41 243 16.1
2014-Aug-29 09:31 243 15.6
2014-Aug-29 09:21 243 15.6
2014-Aug-29 09:12 243 15.6
2014-Aug-29 09:01 243 15.0
2014-Aug-29 08:51 243 15.0
2014-Aug-29 08:41 243 15.0
2014-Aug-29 08:31 243 14.4
2014-Aug-29 08:21 243 14.4
2014-Aug-29 08:11 243 14.4
2014-Aug-29 08:01 243 13.9
2014-Aug-29 07:51 243 13.3
2014-Aug-29 07:41 243 12.8
2014-Aug-29 07:31 243 12.2
2014-Aug-29 07:21 243 11.7
2014-Aug-29 07:12 243 11.1
2014-Aug-29 07:01 243 10.0
2014-Aug-29 06:51 243 9.4
2014-Aug-29 06:41 243 9.4
2014-Aug-29 06:31 243 8.9
2014-Aug-29 06:21 244 8.9
2014-Aug-29 06:11 244 8.3
2014-Aug-29 06:01 243 8.3
2014-Aug-29 05:51 243 7.8
2014-Aug-29 05:41 243 7.8
2014-Aug-29 05:31 243 7.2
2014-Aug-29 05:22 243 7.2
2014-Aug-29 05:12 244 7.2
2014-Aug-29 05:02 244 6.7
2014-Aug-29 04:52 243 6.7
2014-Aug-29 04:42 243 6.1
2014-Aug-29 04:32 244 6.1
2014-Aug-29 04:21 243 6.1
2014-Aug-29 04:11 243 6.1
2014-Aug-29 04:01 243 6.1